Lexington, KY

2:31 PM EST on February 25, 2017 (GMT -0500)
Blue Grass

Weather History for KLEX - May, 2013

Change the Weather History Date:

Wednesday, May 8, 2013

  Actual Average Record
Temperature  
Mean Temperature 65 °F 62 °F  
Max Temperature 75 °F 72 °F 90 °F (1936)
Min Temperature 55 °F 52 °F 32 °F (1947)
Degree Days  
Heating Degree Days 0 5  
Month to date heating degree days 23 43  
Since 1 July heating degree days 4610 4532  
Cooling Degree Days 0 2  
Month to date cooling degree days 10 9  
Year to date cooling degree days 39 31  
Growing Degree Days 15 (Base 50)    
Moisture  
Dew Point 56 °F    
Average Humidity 79    
Maximum Humidity 100    
Minimum Humidity 57    
Precipitation  
Precipitation 0.04 in 0.17 in 1.85 in (2003)
Month to date precipitation 3.10 1.31  
Year to date precipitation 19.30 15.38  
Snow  
Snow 0.00 in 0.00 in - ()
Month to date snowfall 0.0 0.0  
Since 1 July snowfall 12.5 13.0  
Snow Depth 0.00 in    
Sea Level Pressure  
Sea Level Pressure 29.97 in    
Wind  
Wind Speed 4 mph (NW)    
Max Wind Speed 23 mph    
Max Gust Speed 28 mph    
Visibility 4 miles    
Events Fog , Rain    
T = Trace of Precipitation, MM = Missing Value Source: NWS Daily Summary

Daily Weather History Graph

Daily Weather History Graph

Search for Another Location

Airport or City:

Trip Planner

Search our weather history database for the weather conditions in past years. The results will help you decide how hot, cold, wet, or windy it might be!

Date:

Astronomy

May. 08, 2013 Rise Set
Actual Time 6:34 AM EDT 8:36 PM EDT
Civil Twilight 6:05 AM EDT 9:05 PM EDT
Nautical Twilight 5:30 AM EDT 9:40 PM EDT
Astronomical Twilight 4:52 AM EDT 10:18 PM EDT
Moon 5:40 AM EDT (5/8) 7:34 PM EDT (5/8)
Length of Visible Light 14h 59m
Length of Day
14h 01m
Waning Crescent, 2% of the Moon is Illuminated
May 8
Waning Crescent
May 9
New
May 18
First Quarter
May 25
Full
May 31
Last Quarter

Hourly Weather History & Observations

Time (EDT) Temp. Dew Point Humidity Pressure Visibility Wind Dir Wind Speed Gust Speed Precip Events Conditions
12:36 AM 57.2 °F 57.2 °F 100% 29.96 in 1.2 mi Calm Calm - N/A   Scattered Clouds
12:42 AM 57.2 °F 55.4 °F 94% 29.96 in 0.5 mi Calm Calm - N/A Fog Fog
12:50 AM 57.2 °F 55.4 °F 94% 29.96 in 2.5 mi Calm Calm - N/A   Partly Cloudy
12:54 AM 59.0 °F 57.0 °F 93% 29.95 in 4.0 mi Calm Calm - N/A   Partly Cloudy
1:17 AM 59.0 °F 55.4 °F 88% 29.96 in 1.8 mi Calm Calm - N/A   Clear
1:20 AM 57.2 °F 55.4 °F 94% 29.96 in 0.8 mi Calm Calm - N/A   Mist
1:30 AM 57.2 °F 55.4 °F 94% 29.96 in 0.2 mi Calm Calm - N/A Fog Fog
1:54 AM 57.0 °F 55.0 °F 93% 29.94 in 0.2 mi Calm Calm - N/A Fog Fog
2:02 AM 57.2 °F 55.4 °F 94% 29.95 in 0.5 mi Calm Calm - N/A Fog Fog
2:11 AM 57.2 °F 55.4 °F 94% 29.95 in 1.2 mi Calm Calm - N/A   Overcast
2:33 AM 57.2 °F 55.4 °F 94% 29.94 in 0.2 mi Calm Calm - N/A Fog Fog
2:42 AM 57.2 °F 55.4 °F 94% 29.94 in 0.8 mi Calm Calm - N/A   Overcast
2:46 AM 57.2 °F 55.4 °F 94% 29.94 in 2.5 mi Calm Calm - N/A   Overcast
2:54 AM 57.9 °F 55.9 °F 93% 29.92 in 4.0 mi Calm Calm - N/A   Mostly Cloudy
3:26 AM 57.2 °F 55.4 °F 94% 29.93 in 1.8 mi Calm Calm - N/A   Mostly Cloudy
3:33 AM 57.2 °F 55.4 °F 94% 29.93 in 0.8 mi North 3.5 mph - N/A   Mostly Cloudy
3:46 AM 57.2 °F 55.4 °F 94% 29.93 in 0.2 mi North 3.5 mph - N/A Fog Fog
3:54 AM 57.9 °F 57.0 °F 97% 29.92 in 0.5 mi North 3.5 mph - N/A Fog Fog
4:01 AM 57.2 °F 55.4 °F 94% 29.93 in 0.2 mi Calm Calm - N/A Fog Fog
4:26 AM 57.2 °F 55.4 °F 94% 29.94 in 0.2 mi Calm Calm - N/A Fog Fog
4:40 AM 55.4 °F 55.4 °F 100% 29.94 in 0.2 mi Calm Calm - N/A Fog Fog
4:54 AM 55.9 °F 55.0 °F 97% 29.93 in 0.2 mi Calm Calm - N/A Fog Fog
5:54 AM 55.9 °F 55.0 °F 97% 29.93 in 0.2 mi NNW 3.5 mph - N/A Fog Fog
6:01 AM 55.4 °F 55.4 °F 100% 29.94 in 0.2 mi Calm Calm - N/A Fog Fog
6:32 AM 55.4 °F 55.4 °F 100% 29.96 in 0.2 mi Calm Calm - N/A Fog Fog
6:54 AM 55.0 °F 55.0 °F 100% 29.96 in 0.2 mi NNW 3.5 mph - N/A Fog Fog
7:29 AM 55.4 °F 53.6 °F 94% 29.98 in 0.2 mi Calm Calm - N/A Fog Fog
7:54 AM 55.0 °F 54.0 °F 96% 29.98 in 0.2 mi North 3.5 mph - N/A Fog Fog
8:54 AM 55.9 °F 55.9 °F 100% 30.00 in 0.2 mi Calm Calm - N/A Fog Fog
9:01 AM 55.4 °F 55.4 °F 100% 30.01 in 0.2 mi Calm Calm - N/A Fog Fog
9:08 AM 57.2 °F 55.4 °F 94% 30.00 in 0.2 mi Calm Calm - N/A Fog Fog
9:19 AM 57.2 °F 55.4 °F 94% 30.01 in 1.0 mi Calm Calm - N/A   Mist
9:30 AM 57.2 °F 55.4 °F 94% 30.01 in 2.5 mi Calm Calm - N/A   Overcast
9:39 AM 57.2 °F 57.2 °F 100% 30.01 in 3.0 mi Calm Calm - N/A   Overcast
9:54 AM 59.0 °F 57.0 °F 93% 30.00 in 5.0 mi WNW 3.5 mph - N/A   Mostly Cloudy
10:19 AM 60.8 °F 57.2 °F 88% 30.01 in 7.0 mi WNW 3.5 mph - N/A   Mostly Cloudy
10:54 AM 64.9 °F 59.0 °F 81% 30.00 in 10.0 mi Variable 3.5 mph - N/A   Mostly Cloudy
11:33 AM 66.2 °F 57.2 °F 73% 30.02 in 10.0 mi Calm Calm - N/A   Mostly Cloudy
11:54 AM 66.9 °F 59.0 °F 76% 30.01 in 10.0 mi NW 8.1 mph - N/A   Mostly Cloudy
12:20 PM 68.0 °F 59.0 °F 73% 30.02 in 10.0 mi WNW 6.9 mph - N/A   Mostly Cloudy
12:54 PM 69.1 °F 57.9 °F 68% 30.00 in 10.0 mi Variable 6.9 mph - N/A   Overcast
1:54 PM 72.0 °F 59.0 °F 64% 29.99 in 10.0 mi NNW 5.8 mph - N/A   Mostly Cloudy
2:54 PM 72.0 °F 57.0 °F 59% 29.98 in 10.0 mi NNW 8.1 mph - N/A   Mostly Cloudy
3:54 PM 73.9 °F 57.0 °F 55% 29.97 in 10.0 mi West 10.4 mph - N/A   Overcast
4:54 PM 73.9 °F 57.9 °F 57% 29.97 in 10.0 mi West 9.2 mph - N/A   Clear
5:54 PM 61.0 °F 55.9 °F 83% 30.00 in 5.0 mi NW 9.2 mph - 0.03 in Rain Rain
6:54 PM 66.0 °F 57.0 °F 73% 29.99 in 10.0 mi SSW 3.5 mph - 0.01 in   Partly Cloudy
7:54 PM 64.0 °F 57.0 °F 78% 30.00 in 10.0 mi Calm Calm - N/A   Scattered Clouds
8:54 PM 63.0 °F 57.0 °F 81% 30.02 in 10.0 mi SSE 4.6 mph - N/A   Overcast
9:54 PM 62.1 °F 57.0 °F 84% 30.03 in 10.0 mi SSE 4.6 mph - N/A   Mostly Cloudy
10:54 PM 61.0 °F 57.0 °F 87% 30.03 in 10.0 mi Calm Calm - N/A   Overcast
11:54 PM 59.0 °F 55.9 °F 90% 30.03 in 10.0 mi Calm Calm - N/A   Scattered Clouds